Starlink 5497

operational
NORAD ID: 55629 Int'l Des: 2023-021 Owner: SPXS Country: US Constellation: starlink
LEOCIRCULAR

Starlink 5497について

説明を読み込み中...

リアルタイム位置

3D地球を読み込み中...

次回通過

高度履歴

Altitude vs Time

uPlot chart will show altitude changes over time

軌道要素

1 55629U 23021B 25303.02820193 -.00000360 00000-0 -22391-4 0 9995
2 55629 69.9987 174.0127 0002790 278.7798 81.3045 14.98340006148723
Epoch: Oct 30, 2025 • Age: 26 hours

現在のステータス

高度 580.5 km
速度 7.57 km/s
衛星直下点 48.83°N, 117.87°E
打ち上げ日 Feb 17, 2023
運用期間 2.6 years
タイプ internet

技術仕様

分類 Payload
質量 305.00 kg
乾燥質量 290.00 kg
総質量 305.00 kg
長さ 0.20 m
直径 2.80 m
スパン 9.00 m
形状 Box + pan
製造者 SPXS
バスタイプ Starlink
フェーズステータス In Orbit
所有者/国 SPXS/US

大規模コンステレーション

Loading constellations...